Regional Weather Roundup
Issued by NWS

Home | Current Version | Previous Version | Graphics & Text | Print | Product List | Glossary On
Versions: 1 2 3 4 5 6 7 8 9 10 11 12 13 14 15 16 17 18 19 20 21 22 23 24 25 26 27 28 29 30 31 32 33 34 35 36 37 38 39 40 41 42 43 44 45 46 47 48 49 50
000
ASUS43 KMKX 260400
RWRWI

WISCONSIN REGIONAL WEATHER ROUNDUP
NATIONAL WEATHER SERVICE MILWAUKEE/SULLIVAN WI
1100 PM CDT FRI MAY 25 2018

NOTE: "FAIR" INDICATES FEW OR NO CLOUDS BELOW 12,000 FEET WITH NO
SIGNIFICANT WEATHER AND/OR OBSTRUCTIONS TO VISIBILITY.

WIZ001-002-006>008-014>016-023>028-260500-
NORTHWEST WISCONSIN

CITY           SKY/WX    TMP DP  RH WIND       PRES   REMARKS
SUPERIOR ARPT  FAIR      66  63  90 SW3       29.62S
ASHLAND        FAIR      68  62  81 SW6       29.64F
HAYWARD        FAIR      64  63  96 S6        29.69S
SIREN          FAIR      69  58  68 SW6       29.69S
CUMBERLAND     FAIR      61  59  94 S6        29.72R
RICE LAKE      FAIR      64  59  83 CALM      29.73R
CHETEK         FAIR      63  60  90 S3        29.72R
LADYSMITH      FAIR      67  60  76 CALM      29.73S
EAU CLAIRE     NOT AVBL
MENOMONIE      FAIR      66  61  84 CALM      29.72F
NEW RICHMOND   FAIR      66  60  79 CALM      29.72R
OSCEOLA        FAIR      65  61  85 S3        29.74R
$$

WIZ003>005-009-010-017-018-260500-
NORTH CENTRAL WISCONSIN

CITY           SKY/WX    TMP DP  RH WIND       PRES   REMARKS
MANITOWISH WTR FAIR      66  65  97 CALM      29.70S
ARBOR VITAE    FAIR      72  67  83 S5        29.71R
WOODRUFF       FAIR      72  67  83 S5        29.71R
RHINELANDER    FAIR      71  62  73 SW8       29.73S
EAGLE RIVER    FAIR      68  62  81 S3        29.72R
LAND O LAKES   FAIR      66  63  90 CALM      29.72R
PHILLIPS       FAIR      66  64  94 CALM      29.71R
TOMAHAWK       FAIR      64  60  87 CALM      29.73S
MEDFORD        FAIR      66  61  84 W3        29.72S
MERRILL        FAIR      65  63  93 CALM      29.73R
$$

WIZ029-030-035-036-043>047-260500-
CENTRAL WISCONSIN

CITY           SKY/WX    TMP DP  RH WIND       PRES   REMARKS
WAUSAU         NOT AVBL
MOSINEE        FAIR      70  64  83 SW5       29.73S
MARSHFIELD     FAIR      68  61  78 SW5       29.69F
STEVENS POINT  FAIR      71  66  85 SW7       29.72F
WAUPACA        FAIR      74  65  71 S5        29.72S
WAUTOMA        FAIR      71  66  84 S3        29.72F
WISC RAPIDS    FAIR      69  63  81 S5        29.71F
CAMP DOUGLAS   NOT AVBL
$$

WIZ011>013-019>022-031-037>040-048>050-260500-
NORTHEAST WISCONSIN

CITY           SKY/WX    TMP DP  RH WIND       PRES   REMARKS
ANTIGO         FAIR      66  61  84 CALM      29.74S
SHAWANO        FAIR      73  65  74 S3        29.70F
OCONTO         FAIR      72  66  82 CALM      29.70F
STURGEON BAY   CLOUDY    67  63  87 NE3       29.72F
GREEN BAY      FAIR      75  66  73 S7        29.71F
MANITOWOC      FAIR      72  61  68 S6        29.73F
APPLETON       MOCLDY    73  61  64 SW8       29.72R
CLINTONVILLE   FAIR      69  66  90 S3        29.71S
OSHKOSH        FAIR      72  61  68 S7        29.72F
$$

WIZ032>034-041-042-053>061-260500-
SOUTHWEST WISCONSIN

CITY           SKY/WX    TMP DP  RH WIND       PRES   REMARKS
LA CROSSE      LGT RAIN  69  62  78 W10G23    29.71F
SPARTA         FAIR      64  61  91 SW8       29.76S
VIROQUA        FAIR      64  63  95 W13       29.81R
BOSCOBEL       FAIR      68  61  78 NW14G26   29.80R
PRAIRIE DU CHI FAIR      65  58  78 CALM      29.76S
PLATTEVILLE    CLOUDY    71  61  71 E8        29.79F
$$

WIZ056-057-062-063-064-067-068-260500-
SOUTH CENTRAL WISCONSIN

CITY           SKY/WX    TMP DP  RH WIND       PRES   REMARKS
REEDSBURG      FAIR      73  64  71 N7        29.72R
BARABOO/DELLS  FAIR      75  62  65 NE5       29.71R
LONE ROCK      NOT AVBL
MINERAL POINT  LGT RAIN  70  59  68 SW10      29.76F
MADISON        MOCLDY    75  63  66 S14       29.72F
MIDDLETON      FAIR      74  64  70 SW9       29.74F
WATERTOWN      FAIR      71  65  83 SW8       29.75F
MONROE         FAIR      70  61  73 SW12      29.79F
JANESVILLE     FAIR      70  61  73 W6        29.79S
$$

WIZ051-052-058>065-066-070>072-260500-
SOUTHEAST WISCONSIN

CITY           SKY/WX    TMP DP  RH WIND       PRES   REMARKS
MILWAUKEE      FAIR      75  62  64 SW8       29.75F
WAUKESHA       FAIR      68  59  73 S5        29.78S
MILWAUKEE/TIMM FAIR      72  55  56 SW6       29.77S
RACINE         MOCLDY    74  62  66 SW5       29.78F
BURLINGTON     FAIR      68  61  79 SW6       29.78F
KENOSHA        MOCLDY    74  62  66 SW6       29.77F
FOND DU LAC    FAIR      73  59  61 S8        29.73F
SHEBOYGAN      FAIR      68  61  78 SW5       29.74S
WEST BEND      FAIR      70  55  60 SW3       29.76S
JUNEAU         FAIR      71  62  72 S8        29.76F
$$

LSZ147-162-260500-
LAKE SUPERIOR

STATION/POSITION TIME  TEMP    WIND        PRES    WAVE
                       AIR SEA DIR/SP/G            HT/PER
                 (UTC) (F)     (DEG/KT/KT) (MB)    (FT/S)
W MID LAKE BUOY  0250   43 37  230/  4/  6 1002.9R   0
DEVILS ISLAND    0300   74     220/  8/  9 1002.5R
SAXON HARBOR     0330   74     190/  7/ 11 1003.0S
$$

LMZ867-665-643>646-260500-
LAKE MICHIGAN

STATION/POSITION TIME  TEMP    WIND        PRES    WAVE
                       AIR SEA DIR/SP/G            HT/PER
                 (UTC) (F)     (DEG/KT/KT) (MB)    (FT/S)
N MID LAKE BUOY  0340   56 38  270/ 10/ 14 1008.1R
NORTHPORT PIER   0340   60     270/  2     1006.8F
KEWAUNEE LAKESHO 0330          180/  8/ 10 1005.8F
SHEBOYGAN LAKESH 0300   70     200/  5/  5 1006.4R
PORT WASHINGTON  0340   58      CALM  /  4 1008.5S
ATWATER BUOY     0307   66 48  220/  6/  6 1007.9    1
MILWAUKEE LAKESH 0330   76     220/ 10/ 11   N/A
S MID LAKE BUOY  0250   54 39  230/  6/  8 1008.6R   0
KENOSHA   LAKESH 0300   77                 1008.5
$$

TC  - TEMPERATURE IN CELSIUS
VSB - VISIBILITY IN STATUTE MILES
WCI - WIND CHILL INDEX
HX  - HEAT INDEX




USA.gov is the U.S. government's official web portal to all federal, state and local government web resources and services.